Sturgis, MI

6:55 PM EDT on October 19, 2017 (GMT -0400)
Kirsch Municipal

Weather History for KIRS - December, 2011

Change the Weather History Date:

Thursday, December 22, 2011

  Actual Average (KHAI) Record (KHAI)
Temperature  
Mean Temperature 36 °F -  
Max Temperature 39 °F 34 °F 61 °F (1967)
Min Temperature 33 °F 17 °F -15 °F (1989)
Degree Days  
Heating Degree Days 29    
Moisture  
Dew Point 35 °F    
Average Humidity 90    
Maximum Humidity 100    
Minimum Humidity 81    
Precipitation  
Precipitation 0.00 in - - ()
Sea Level Pressure  
Sea Level Pressure 30.04 in    
Wind  
Wind Speed 2 mph (NW)    
Max Wind Speed 12 mph    
Max Gust Speed 16 mph    
Visibility 8 miles    
Events Rain , Snow    
Averages and records for this station are not official NWS values.
T = Trace of Precipitation, MM = Missing Value Source: NWS Daily Summary

Daily Weather History Graph

Daily Weather History Graph

Search for Another Location

Airport or City:

Trip Planner

Search our weather history database for the weather conditions in past years. The results will help you decide how hot, cold, wet, or windy it might be!

Date:

Astronomy

Dec. 22, 2011 Rise Set
Actual Time 8:06 AM EST 5:14 PM EST
Civil Twilight 7:34 AM EST 5:46 PM EST
Nautical Twilight 6:59 AM EST 6:21 PM EST
Astronomical Twilight 6:25 AM EST 6:55 PM EST
Moon 5:48 AM EST (12/22) 3:24 PM EST (12/22)
Length of Visible Light 10h 11m
Length of Day
9h 08m
Waning Crescent, 6% of the Moon is Illuminated
Dec 22
Waning Crescent
Dec 24
New
Jan 1
First Quarter
Jan 9
Full
Jan 16
Last Quarter

Hourly Weather History & Observations

Time (EST) Temp. Windchill Dew Point Humidity Pressure Visibility Wind Dir Wind Speed Gust Speed Precip Events Conditions
12:15 AM 39.2 °F - 37.4 °F 93% 29.93 in 5.0 mi Calm Calm - N/A   Overcast
12:35 AM 39.2 °F 34.2 °F 37.4 °F 93% 29.94 in 3.0 mi WSW 6.9 mph - N/A   Overcast
12:55 AM 39.2 °F - 37.4 °F 93% 29.94 in 5.0 mi Calm Calm - N/A   Overcast
1:15 AM 39.2 °F - 37.4 °F 93% 29.95 in 5.0 mi Calm Calm - N/A   Overcast
1:34 AM 39.2 °F 32.0 °F 37.4 °F 93% 29.96 in 7.0 mi West 11.5 mph - N/A   Overcast
1:55 AM 37.4 °F 32.1 °F 37.4 °F 100% 29.97 in 5.0 mi WSW 6.9 mph - N/A   Overcast
2:14 AM 37.4 °F - 37.4 °F 100% 29.97 in 5.0 mi Calm Calm - N/A   Overcast
2:34 AM 37.4 °F 30.8 °F 37.4 °F 100% 29.98 in 5.0 mi West 9.2 mph - N/A   Overcast
2:55 AM 37.4 °F 34.9 °F 37.4 °F 100% 29.99 in 7.0 mi West 3.5 mph - N/A   Overcast
3:15 AM 37.4 °F 33.8 °F 37.4 °F 100% 29.99 in 7.0 mi West 4.6 mph - N/A   Overcast
3:35 AM 37.4 °F - 35.6 °F 93% 30.00 in 7.0 mi Calm Calm - N/A   Overcast
3:55 AM 37.4 °F - 35.6 °F 93% 30.00 in 7.0 mi Calm Calm - N/A   Overcast
4:35 AM 37.4 °F 34.9 °F 35.6 °F 93% 29.98 in 10.0 mi West 3.5 mph - N/A   Overcast
4:55 AM 37.4 °F - 33.8 °F 87% 30.01 in 10.0 mi Calm Calm - N/A   Overcast
5:14 AM 37.4 °F - 33.8 °F 87% 30.02 in 10.0 mi Calm Calm - N/A   Overcast
5:35 AM 37.4 °F - 33.8 °F 87% 30.03 in 10.0 mi Calm Calm - N/A   Overcast
5:55 AM 37.4 °F - 33.8 °F 87% 30.03 in 10.0 mi Calm Calm - N/A   Overcast
6:35 AM 37.4 °F - 33.8 °F 87% 30.04 in 10.0 mi Calm Calm - N/A   Overcast
6:54 AM 37.4 °F - 33.8 °F 87% 30.04 in 10.0 mi Calm Calm - N/A   Overcast
7:15 AM 37.4 °F - 33.8 °F 87% 30.04 in 10.0 mi Calm Calm - N/A   Overcast
7:35 AM 37.4 °F - 33.8 °F 87% 30.03 in 10.0 mi Calm Calm - N/A   Overcast
8:15 AM 37.4 °F - 33.8 °F 87% 30.03 in 10.0 mi Calm Calm - N/A   Overcast
8:35 AM 37.4 °F - 33.8 °F 87% 30.03 in 10.0 mi Calm Calm - N/A   Overcast
8:55 AM 37.4 °F - 33.8 °F 87% 30.04 in 10.0 mi Calm Calm - N/A   Overcast
9:15 AM 37.4 °F - 33.8 °F 87% 30.04 in 10.0 mi Calm Calm - N/A   Overcast
9:34 AM 37.4 °F - 33.8 °F 87% 30.05 in 10.0 mi Calm Calm - N/A   Overcast
9:55 AM 39.2 °F - 33.8 °F 81% 30.08 in 10.0 mi Calm Calm - N/A   Overcast
10:14 AM 39.2 °F - 33.8 °F 81% 30.08 in 10.0 mi Calm Calm - N/A   Overcast
10:34 AM 39.2 °F - 33.8 °F 81% 30.07 in 10.0 mi Calm Calm - N/A   Mostly Cloudy
11:15 AM 39.2 °F - 33.8 °F 81% 30.09 in 7.0 mi Calm Calm - N/A   Overcast
11:35 AM 39.2 °F - 33.8 °F 81% 30.07 in 10.0 mi Calm Calm - N/A   Mostly Cloudy
11:55 AM 39.2 °F - 33.8 °F 81% 30.06 in 10.0 mi Calm Calm - N/A   Scattered Clouds
12:14 PM 39.2 °F - 33.8 °F 81% 30.06 in 10.0 mi Calm Calm - N/A   Clear
12:35 PM 39.2 °F - 33.8 °F 81% 30.05 in 10.0 mi Calm Calm - N/A   Clear
12:55 PM 39.2 °F - 33.8 °F 81% 30.06 in 10.0 mi Calm Calm - N/A   Clear
1:14 PM 39.2 °F - 33.8 °F 81% 30.05 in 10.0 mi Calm Calm - N/A   Scattered Clouds
1:35 PM 39.2 °F - 33.8 °F 81% 30.04 in 10.0 mi Calm Calm - N/A   Overcast
1:54 PM 39.2 °F - 35.6 °F 87% 30.03 in 10.0 mi Calm Calm - N/A   Overcast
2:15 PM 39.2 °F - 35.6 °F 87% 30.03 in 10.0 mi Calm Calm - N/A   Overcast
2:35 PM 39.2 °F - 35.6 °F 87% 30.03 in 10.0 mi Calm Calm - N/A   Overcast
2:54 PM 39.2 °F - 35.6 °F 87% 30.03 in 10.0 mi Calm Calm - N/A   Overcast
3:15 PM 39.2 °F - 35.6 °F 87% 30.04 in 10.0 mi Calm Calm - N/A   Overcast
3:35 PM 39.2 °F - 35.6 °F 87% 30.05 in 10.0 mi Calm Calm - N/A   Overcast
4:34 PM 39.2 °F - 35.6 °F 87% 30.03 in 10.0 mi Calm Calm - N/A   Overcast
4:55 PM 39.2 °F - 35.6 °F 87% 30.02 in 10.0 mi Calm Calm - N/A   Overcast
5:15 PM 39.2 °F - 35.6 °F 87% 30.01 in 10.0 mi Calm Calm - N/A   Overcast
5:34 PM 39.2 °F - 35.6 °F 87% 30.02 in 10.0 mi Calm Calm - N/A   Overcast
5:55 PM 39.2 °F - 35.6 °F 87% 30.02 in 10.0 mi Calm Calm - N/A   Overcast
6:15 PM 39.2 °F - 35.6 °F 87% 30.03 in 10.0 mi Calm Calm - N/A   Overcast
6:34 PM 39.2 °F - 35.6 °F 87% 30.05 in 10.0 mi Calm Calm - N/A   Overcast
6:55 PM 39.2 °F - 35.6 °F 87% 30.06 in 7.0 mi Calm Calm - N/A Rain Light Rain
7:35 PM 37.4 °F 30.8 °F 35.6 °F 93% 30.06 in 5.0 mi North 9.2 mph - N/A Rain Light Rain
7:55 PM 35.6 °F 29.9 °F 35.6 °F 100% 30.07 in 5.0 mi North 6.9 mph - N/A Rain Light Rain
8:14 PM 35.6 °F - 35.6 °F 100% 30.07 in 5.0 mi Calm Calm - N/A Rain Light Rain
8:35 PM 35.6 °F - 33.8 °F 93% 30.07 in 5.0 mi Calm Calm - N/A Rain Light Rain
9:14 PM 35.6 °F 28.6 °F 33.8 °F 93% 30.08 in 5.0 mi North 9.2 mph - N/A   Overcast
9:35 PM 33.8 °F - 33.8 °F 100% 30.09 in 5.0 mi Calm Calm - N/A   Overcast
9:54 PM 33.8 °F 27.0 °F 33.8 °F 100% 30.09 in 5.0 mi North 8.1 mph - N/A   Overcast
10:15 PM 33.8 °F 27.0 °F 33.8 °F 100% 30.10 in 7.0 mi North 8.1 mph - N/A   Overcast
10:35 PM 33.8 °F 30.8 °F 33.8 °F 100% 30.10 in 5.0 mi North 3.5 mph - N/A   Overcast
10:54 PM 33.8 °F - 33.8 °F 100% 30.11 in 7.0 mi Calm Calm - N/A   Overcast
11:15 PM 33.8 °F 28.6 °F 32.0 °F 93% 30.12 in 7.0 mi North 5.8 mph - N/A Snow Light Snow
11:34 PM 33.8 °F 26.4 °F 32.0 °F 93% 30.13 in 7.0 mi North 9.2 mph - N/A Snow Light Snow
11:55 PM 33.8 °F 27.7 °F 30.2 °F 87% 30.13 in 7.0 mi North 6.9 mph 16.1 mph N/A   Overcast